Home   Weather   51°16'N, 7°09'E   Past weeks
Flag for Germany

Past Weather in 51°16'N, 7°09'E, Germany — Yesterday and Last 2 Weeks

Now
52 °F

Clear.


Feels Like: 47 °F
Forecast: 56 / 53 °F
Wind: 15 mph from Southeast

Location: Duesseldorf

Current Time: Oct 19, 2019 at 4:36:15 am

Latest Report: Oct 19, 2019 at 3:50 am


Visibility: 10 mi

Pressure: 29.71 "Hg

Humidity: 82%

Dew Point: 46 °F

Location of 51°16'N, 7°09'ELocation

Past Weather in 51°16'N, 7°09'E — Graph

°F

51°16'N, 7°09'E Temperature Yesterday

Maximum temperature yesterday: 63 °F (at 11:50 am)
Minimum temperature yesterday: 54 °F (at 12:20 pm)
Average temperature yesterday: 56 °F

High & Low Weather Summary for the Past Weeks

 TemperatureHumidityPressure
High77 °F (Oct 13, 3:20 pm)100% (Oct 4, 10:50 am)30.09 "Hg (Oct 4, 10:50 am)
Low46 °F (Oct 5, 9:20 pm)54% (Oct 13, 3:50 pm)29.59 "Hg (Oct 4, 2:20 pm)
Average57 °F82%29.83 "Hg
* Reported Oct 4 3:20 am — Oct 19 3:20 am, 51°16'N, 7°09'E. Weather by CustomWeather, © 2019

Note: Actual official high and low records may vary slightly from our data, if they occured in-between our weather recording intervals... More about our weather records

Advertising

51°16'N, 7°09'E Weather History for the Previous 24 Hours

Scroll right to see more
 ConditionsComfort  
Time TempWeatherWind HumidityBarometerVisibility
3:20 am
Sat, Oct 19
52 °FClear.12 mph82%29.74 "Hg10 mi
2:50 am52 °FClear.12 mph82%29.74 "Hg10 mi
2:20 am52 °FClear.10 mph82%29.74 "Hg10 mi
1:50 am52 °FClear.12 mph82%29.74 "Hg10 mi
1:20 am52 °FClear.10 mph82%29.74 "Hg10 mi
12:50 am54 °FClear.12 mph72%29.77 "Hg10 mi
12:20 am54 °FClear.14 mph72%29.77 "Hg10 mi
11:50 pm
Fri, Oct 18
54 °FClear.14 mph72%29.77 "Hg10 mi
11:20 pm54 °FClear.14 mph72%29.77 "Hg10 mi
10:50 pm54 °FClear.13 mph72%29.77 "Hg10 mi
10:20 pm54 °FClear.16 mph72%29.77 "Hg10 mi
9:50 pm54 °FClear.14 mph72%29.77 "Hg10 mi
9:20 pm55 °FClear.13 mph67%29.77 "Hg10 mi
8:50 pm55 °FClear.13 mph67%29.77 "Hg10 mi
8:20 pm55 °FClear.13 mph67%29.77 "Hg10 mi
7:50 pm55 °FClear.13 mph67%29.77 "Hg10 mi
7:20 pm54 °FClear.14 mph72%29.77 "Hg10 mi
6:50 pm55 °FPassing clouds.14 mph67%29.77 "HgN/A
6:20 pm55 °FScattered clouds.14 mph67%29.77 "HgN/A
5:50 pm57 °FScattered clouds.16 mph67%29.77 "HgN/A
5:20 pm57 °FScattered clouds.16 mph63%29.74 "HgN/A
4:50 pm57 °FScattered clouds.20 mph67%29.74 "HgN/A
4:20 pm57 °FScattered clouds.23 mph63%29.74 "HgN/A
3:50 pm57 °FScattered clouds.21 mph63%29.74 "HgN/A
3:20 pm57 °FPartly sunny.21 mph67%29.71 "HgN/A
2:50 pm57 °FPartly sunny.26 mph67%29.71 "HgN/A
2:20 pm55 °FScattered showers. Passing clouds.23 mph72%29.71 "HgN/A
1:50 pm55 °FSprinkles. Passing clouds.18 mph72%29.71 "HgN/A
1:20 pm54 °FPassing clouds.20 mph77%29.68 "HgN/A
12:50 pm54 °FSprinkles. Passing clouds.18 mph82%29.68 "HgN/A
12:20 pm54 °FThunderstorms. Scattered clouds.21 mph88%29.68 "HgN/A
11:50 am63 °FScattered showers. Broken clouds.25 mph68%29.62 "HgN/A
11:20 am61 °FSunny.20 mph72%29.65 "Hg10 mi
10:20 am61 °FSunny.18 mph77%29.68 "Hg10 mi
9:50 am59 °FCool.14 mph82%29.68 "HgN/A
9:20 am59 °FSunny.14 mph82%29.71 "Hg10 mi
8:50 am57 °FPartly sunny.10 mph88%29.71 "HgN/A
8:20 am57 °FScattered clouds.10 mph88%29.71 "HgN/A
7:50 am55 °FClear.10 mph88%29.71 "Hg10 mi
7:20 am57 °FPassing clouds.10 mph88%29.71 "HgN/A
6:50 am57 °FLight rain. Clear.14 mph88%29.71 "HgN/A
6:20 am55 °FClear.10 mph88%29.74 "Hg10 mi
5:50 am55 °FClear.10 mph88%29.74 "Hg10 mi
5:20 am55 °FLight rain. Clear.13 mph88%29.74 "HgN/A
4:50 am55 °FLight rain. Clear.12 mph88%29.77 "HgN/A
4:20 am55 °FClear.9 mph88%29.77 "Hg10 mi
Weather by CustomWeather, © 2019

See weather overview